Date String (YYYY-MM-DD hh:mm:ss) UTC,Instrument flags,absolute air pressure of the measurement (hPa),sample flow rate (lpm),inlet stack bypass flow (lpm),air temperature of the measurement (°C),ambient temperature measured by the external sensor (°C),aerosol sample conditioner tube jacket temperature (°C),OPC LED temperature (°C),internal box temperature (°C),relative humidity of the measurement (%),span deviation,mass concentration of particles derived from Lorenz-Mie calculation of OPC scattering (μg/m³),mass concentration of particles derived from Lorenz-Mie calculation of OPC scattering (μg/m³),mass concentration of particles derived from Lorenz-Mie calculation of OPC scattering (μg/m³)
DateTimeUTC,F1_M11,P_M11,Q1_M11,Q2_M11,T1_M11,T2_M11,T3_M11,T4_M11,T5_M11,U1_M11,ZSPAN_M11,X0_M11,X2_M11,X1_M11
2024-05-31 08:00:00,SystemResetWarning,0830.2,4.99,000.00,031.0,030.2,000.0,039.4,032.7,021.3,0000.0,0014.06,0004.95,0003.85
2024-05-31 08:01:00,SystemResetWarning,0830.2,4.99,000.00,031.0,030.2,000.0,039.4,032.7,021.4,0000.0,0014.48,0004.96,0003.83
2024-05-31 08:02:00,SystemResetWarning,0830.2,5.00,000.00,031.0,030.2,000.0,039.4,032.7,021.4,0000.0,0014.86,0004.94,0003.83
2024-05-31 08:03:00,SystemResetWarning,0830.2,5.01,000.00,031.0,030.2,000.0,039.4,032.7,021.4,0000.0,0015.83,0004.98,0003.84
2024-05-31 08:04:00,SystemResetWarning,0830.2,5.00,000.00,031.0,030.2,000.0,039.4,032.7,021.4,0000.0,0016.00,0004.99,0003.83
2024-05-31 08:05:00,SystemResetWarning,0830.1,4.98,000.00,031.0,030.2,000.0,039.4,032.7,021.5,0000.0,0015.98,0005.05,0003.84
2024-05-31 08:06:00,SystemResetWarning,0830.2,4.99,000.00,031.0,030.2,000.0,039.4,032.7,021.5,0000.0,0015.65,0005.04,0003.84
2024-05-31 08:07:00,SystemResetWarning,0830.1,5.01,000.00,031.0,030.2,000.0,039.4,032.6,021.6,0000.0,0016.27,0005.04,0003.85
2024-05-31 08:08:00,SystemResetWarning,0830.1,5.01,000.00,030.9,030.2,000.0,039.4,032.6,021.5,0000.0,0016.32,0005.04,0003.84
2024-05-31 08:09:00,SystemResetWarning,0830.1,5.00,000.00,030.9,030.2,000.0,039.4,032.6,021.5,0000.0,0016.00,0005.00,0003.84
2024-05-31 08:10:00,SystemResetWarning,0830.1,5.00,000.00,030.9,030.2,000.0,039.4,032.6,021.4,0000.0,0015.82,0004.96,0003.84
2024-05-31 08:11:00,SystemResetWarning,0830.1,4.99,000.00,030.9,030.1,000.0,039.4,032.6,021.2,0000.0,0015.63,0004.99,0003.85
2024-05-31 08:12:00,SystemResetWarning,0830.1,4.99,000.00,030.9,030.2,000.0,039.4,032.6,021.1,0000.0,0015.22,0004.99,0003.86
2024-05-31 08:13:00,SystemResetWarning,0830.1,5.00,000.00,030.9,030.2,000.0,039.4,032.6,021.1,0000.0,0016.08,0004.98,0003.84
2024-05-31 08:14:00,SystemResetWarning,0830.1,5.01,000.00,030.9,030.1,000.0,039.4,032.6,021.2,0000.0,0015.45,0004.94,0003.84
2024-05-31 08:15:00,SystemResetWarning,0830.1,5.00,000.00,030.9,030.1,000.0,039.4,032.6,021.1,0000.0,0015.24,0004.91,0003.84
2024-05-31 08:16:00,SystemResetWarning,0830.1,5.01,000.00,030.9,030.1,000.0,039.4,032.6,021.0,0000.0,0015.41,0004.92,0003.83
2024-05-31 08:17:00,SystemResetWarning,0830.1,5.01,000.00,030.9,030.1,000.0,039.4,032.6,021.0,0000.0,0015.39,0004.90,0003.83
2024-05-31 08:18:00,SystemResetWarning,0830.1,4.99,000.00,030.9,030.1,000.0,039.4,032.6,021.0,0000.0,0016.10,0004.89,0003.83
2024-05-31 08:19:00,SystemResetWarning,0830.1,4.99,000.00,030.9,030.1,000.0,039.4,032.6,021.1,0000.0,0016.58,0004.84,0003.83
2024-05-31 08:20:00,SystemResetWarning,0830.1,5.00,000.00,030.9,030.1,000.0,039.4,032.6,021.0,0000.0,0016.28,0004.84,0003.84
2024-05-31 08:21:00,SystemResetWarning,0830.0,5.01,000.00,030.9,030.1,000.0,039.4,032.6,021.0,0000.0,0015.83,0004.86,0003.84
2024-05-31 08:22:00,SystemResetWarning,0830.1,5.01,000.00,030.9,030.1,000.0,039.4,032.6,021.0,0000.0,0015.86,0004.85,0003.84
2024-05-31 08:23:00,SystemResetWarning,0830.0,4.99,000.00,030.9,030.1,000.0,039.4,032.5,020.9,0000.0,0016.35,0004.80,0003.83
2024-05-31 08:24:00,SystemResetWarning,0830.0,4.99,000.00,030.9,030.1,000.0,039.4,032.5,020.9,0000.0,0015.99,0004.81,0003.84
2024-05-31 08:25:00,SystemResetWarning,0830.0,5.00,000.00,030.9,030.1,000.0,039.4,032.5,020.9,0000.0,0016.47,0004.83,0003.83
2024-05-31 08:26:00,SystemResetWarning,0830.0,5.01,000.00,030.9,030.1,000.0,039.3,032.5,020.9,0000.0,0016.90,0004.81,0003.83
2024-05-31 08:27:00,SystemResetWarning,0830.0,5.01,000.00,030.9,030.1,000.0,039.3,032.5,020.9,0000.0,0016.50,0004.79,0003.83
2024-05-31 08:28:00,SystemResetWarning,0830.1,5.00,000.00,030.9,030.1,000.0,039.3,032.5,020.8,0000.0,0016.62,0004.79,0003.82
2024-05-31 08:29:00,SystemResetWarning,0830.1,4.99,000.00,030.9,030.1,000.0,039.3,032.5,020.8,0000.0,0015.98,0004.78,0003.81
2024-05-31 08:30:00,SystemResetWarning,0830.1,5.00,000.00,030.9,030.1,000.0,039.3,032.5,020.8,0000.0,0015.79,0004.84,0003.81
2024-05-31 08:31:00,SystemResetWarning,0830.2,4.99,000.00,030.8,030.1,000.0,039.3,032.5,020.9,0000.0,0016.56,0004.86,0003.80
2024-05-31 08:32:00,SystemResetWarning,0830.1,5.00,000.00,030.8,030.0,000.0,039.3,032.5,020.8,0000.0,0016.52,0004.83,0003.79
2024-05-31 08:33:00,SystemResetWarning,0830.1,5.00,000.00,030.8,030.0,000.0,039.3,032.5,020.8,0000.0,0016.26,0004.81,0003.78
2024-05-31 08:34:00,SystemResetWarning,0830.1,5.01,000.00,030.8,030.0,000.0,039.3,032.5,020.8,0000.0,0016.04,0004.82,0003.78
2024-05-31 08:35:00,SystemResetWarning,0830.1,5.00,000.00,030.8,030.0,000.0,039.3,032.5,020.8,0000.0,0016.19,0004.81,0003.78
2024-05-31 08:36:00,SystemResetWarning,0830.0,5.00,000.00,030.8,030.0,000.0,039.3,032.5,020.7,0000.0,0014.94,0004.80,0003.78
2024-05-31 08:37:00,SystemResetWarning,0830.0,5.00,000.00,030.8,030.0,000.0,039.3,032.5,020.7,0000.0,0013.75,0004.83,0003.78
2024-05-31 08:38:00,SystemResetWarning,0830.0,5.00,000.00,030.8,030.0,000.0,039.3,032.5,020.7,0000.0,0013.46,0004.82,0003.80
2024-05-31 08:39:00,SystemResetWarning,0830.0,5.00,000.00,030.8,030.0,000.0,039.3,032.5,020.7,0000.0,0013.41,0004.82,0003.79
2024-05-31 08:40:00,SystemResetWarning,0830.0,5.00,000.00,030.8,030.0,000.0,039.3,032.5,020.7,0000.0,0013.24,0004.85,0003.80
2024-05-31 08:41:00,SystemResetWarning,0830.0,4.98,000.00,030.8,030.0,000.0,039.3,032.4,020.7,0000.0,0012.91,0004.80,0003.80
2024-05-31 08:42:00,SystemResetWarning,0830.0,5.01,000.00,030.8,030.0,000.0,039.3,032.5,020.7,0000.0,0012.13,0004.76,0003.81
2024-05-31 08:43:00,SystemResetWarning,0830.0,5.00,000.00,030.8,030.0,000.0,039.3,032.5,020.8,0000.0,0012.58,0004.75,0003.81
2024-05-31 08:44:00,SystemResetWarning,0830.0,5.00,000.00,030.8,030.0,000.0,039.3,032.4,020.6,0000.0,0012.51,0004.75,0003.81
2024-05-31 08:45:00,SystemResetWarning,0830.0,5.01,000.00,030.8,030.0,000.0,039.3,032.5,020.6,0000.0,0012.52,0004.73,0003.81
2024-05-31 08:46:00,SystemResetWarning,0830.0,5.00,000.00,030.8,030.0,000.0,039.3,032.5,020.6,0000.0,0012.13,0004.75,0003.83
2024-05-31 08:47:00,SystemResetWarning,0830.0,4.99,000.00,030.8,030.0,000.0,039.3,032.5,020.6,0000.0,0011.86,0004.75,0003.84
2024-05-31 08:48:00,SystemResetWarning,0830.0,4.98,000.00,030.8,030.0,000.0,039.3,032.5,020.5,0000.0,0012.62,0004.78,0003.85
2024-05-31 08:49:00,SystemResetWarning,0830.0,5.00,000.00,030.8,030.0,000.0,039.3,032.5,020.5,0000.0,0013.72,0004.77,0003.84
2024-05-31 08:50:00,SystemResetWarning,0830.0,5.00,000.00,030.8,030.0,000.0,039.2,032.5,020.5,0000.0,0013.88,0004.79,0003.85
2024-05-31 08:51:00,SystemResetWarning,0830.0,5.01,000.00,030.8,030.0,000.0,039.2,032.5,020.5,0000.0,0013.58,0004.76,0003.84
2024-05-31 08:52:00,SystemResetWarning,0830.0,5.01,000.00,030.8,030.0,000.0,039.2,032.5,020.4,0000.0,0013.61,0004.80,0003.85
2024-05-31 08:53:00,SystemResetWarning,0830.0,4.99,000.00,030.8,030.0,000.0,039.2,032.5,020.4,0000.0,0013.68,0004.87,0003.85
2024-05-31 08:54:00,SystemResetWarning,0830.0,4.99,000.00,030.8,030.0,000.0,039.2,032.5,020.4,0000.0,0013.65,0004.93,0003.85
2024-05-31 08:55:00,SystemResetWarning,0830.1,5.01,000.00,030.8,030.0,000.0,039.2,032.5,020.4,0000.0,0013.58,0004.91,0003.87
2024-05-31 08:56:00,SystemResetWarning,0830.0,5.01,000.00,030.8,030.0,000.0,039.2,032.4,020.4,0000.0,0013.37,0004.96,0003.88
2024-05-31 08:57:00,SystemResetWarning,0830.0,5.01,000.00,030.8,030.0,000.0,039.2,032.4,020.4,0000.0,0013.14,0004.95,0003.86
2024-05-31 08:58:00,SystemResetWarning,0830.0,5.00,000.00,030.8,030.0,000.0,039.2,032.4,020.3,0000.0,0014.27,0004.99,0003.86
2024-05-31 08:59:00,SystemResetWarning,0830.0,5.00,000.00,030.8,029.9,000.0,039.2,032.4,020.3,0000.0,0014.23,0004.98,0003.86
